Time,TemperatureF,DewpointF,PressureIn,WindDirection,WindDirectionDegrees,WindSpeedMPH,WindSpeedGustMPH,Humidity,HourlyPrecipIn,Conditions,Clouds,dailyrainin,SoftwareType,DateUTC
2013-11-01 00:13:00,47.0,-99.9,-100.00,SE,142,3.0,-999.0,-999,0.00,,,-99.99,,2013-11-01 05:13:00,
2013-11-01 00:23:00,47.0,-99.9,-100.00,SE,142,3.0,-999.0,-999,0.00,,,-99.99,,2013-11-01 05:23:00,
2013-11-01 00:43:00,47.0,-99.9,-100.00,South,169,3.0,-999.0,-999,0.00,,,-99.99,,2013-11-01 05:43:00,
2013-11-01 00:53:00,47.0,-99.9,-100.00,South,169,3.0,-999.0,-999,0.00,,,-99.99,,2013-11-01 05:53:00,
2013-11-01 01:12:00,47.0,-99.9,-100.00,SSW,202,4.0,-999.0,-999,0.00,,,-99.99,,2013-11-01 06:12:00,
2013-11-01 01:22:00,47.0,-99.9,-100.00,SSW,202,4.0,-999.0,-999,0.00,,,-99.99,,2013-11-01 06:22:00,
2013-11-01 01:42:00,47.0,-99.9,-100.00,SSE,148,2.0,-999.0,-999,0.00,,,-99.99,,2013-11-01 06:42:00,
2013-11-01 01:52:00,47.0,-99.9,-100.00,SSE,148,2.0,-999.0,-999,0.00,,,-99.99,,2013-11-01 06:52:00,
2013-11-01 02:12:00,47.0,-99.9,-100.00,South,171,2.0,-999.0,-999,0.00,,,-99.99,,2013-11-01 07:12:00,
2013-11-01 02:22:00,47.0,-99.9,-100.00,South,171,2.0,-999.0,-999,0.00,,,-99.99,,2013-11-01 07:22:00,
2013-11-01 02:42:00,48.0,-99.9,-100.00,South,169,3.0,-999.0,-999,0.00,,,-99.99,,2013-11-01 07:42:00,
2013-11-01 02:52:00,48.0,-99.9,-100.00,South,169,3.0,-999.0,-999,0.00,,,-99.99,,2013-11-01 07:52:00,
2013-11-01 03:12:00,47.0,-99.9,-100.00,SSE,167,4.0,-999.0,-999,0.00,,,-99.99,,2013-11-01 08:12:00,
2013-11-01 03:22:00,47.0,-99.9,-100.00,SSE,167,4.0,-999.0,-999,0.00,,,-99.99,,2013-11-01 08:22:00,
2013-11-01 03:42:00,47.0,-99.9,-100.00,SE,141,2.0,-999.0,-999,0.00,,,-99.99,,2013-11-01 08:42:00,
2013-11-01 03:52:00,47.0,-99.9,-100.00,SE,141,2.0,-999.0,-999,0.00,,,-99.99,,2013-11-01 08:52:00,
2013-11-01 04:12:00,47.0,-99.9,-100.00,SSE,150,3.0,-999.0,-999,0.00,,,-99.99,,2013-11-01 09:12:00,
2013-11-01 04:22:00,47.0,-99.9,-100.00,SSE,150,3.0,-999.0,-999,0.00,,,-99.99,,2013-11-01 09:22:00,
2013-11-01 04:43:00,47.0,-99.9,-100.00,SSE,161,3.0,-999.0,-999,0.00,,,-99.99,,2013-11-01 09:43:00,
2013-11-01 04:53:00,47.0,-99.9,-100.00,SSE,161,3.0,-999.0,-999,0.00,,,-99.99,,2013-11-01 09:53:00,
2013-11-01 05:13:00,47.0,-99.9,-100.00,South,173,3.0,-999.0,-999,0.00,,,-99.99,,2013-11-01 10:13:00,
2013-11-01 05:23:00,47.0,-99.9,-100.00,South,173,3.0,-999.0,-999,0.00,,,-99.99,,2013-11-01 10:23:00,
2013-11-01 05:43:00,47.0,-99.9,-100.00,SSE,152,4.0,-999.0,-999,0.00,,,-99.99,,2013-11-01 10:43:00,
2013-11-01 05:53:00,47.0,-99.9,-100.00,SSE,152,4.0,-999.0,-999,0.00,,,-99.99,,2013-11-01 10:53:00,
2013-11-01 06:12:00,47.0,-99.9,-100.00,SSE,165,3.0,-999.0,-999,0.00,,,-99.99,,2013-11-01 11:12:00,
2013-11-01 06:22:00,47.0,-99.9,-100.00,SSE,165,3.0,-999.0,-999,0.00,,,-99.99,,2013-11-01 11:22:00,
2013-11-01 06:42:00,47.0,-99.9,-100.00,South,171,4.0,-999.0,-999,0.00,,,-99.99,,2013-11-01 11:42:00,
2013-11-01 06:52:00,47.0,-99.9,-100.00,South,171,4.0,-999.0,-999,0.00,,,-99.99,,2013-11-01 11:52:00,
2013-11-01 07:12:00,47.0,-99.9,-100.00,SSE,161,3.0,-999.0,-999,0.00,,,-99.99,,2013-11-01 12:12:00,
2013-11-01 07:22:00,47.0,-99.9,-100.00,SSE,161,3.0,-999.0,-999,0.00,,,-99.99,,2013-11-01 12:22:00,
2013-11-01 07:42:00,46.0,-99.9,-100.00,SSE,163,4.0,-999.0,-999,0.00,,,-99.99,,2013-11-01 12:42:00,
2013-11-01 07:52:00,46.0,-99.9,-100.00,SSE,163,4.0,-999.0,-999,0.00,,,-99.99,,2013-11-01 12:52:00,
2013-11-01 08:12:00,46.0,-99.9,-100.00,SSE,168,3.0,-999.0,-999,0.00,,,-99.99,,2013-11-01 13:12:00,
2013-11-01 08:22:00,46.0,-99.9,-100.00,SSE,168,3.0,-999.0,-999,0.00,,,-99.99,,2013-11-01 13:22:00,
2013-11-01 08:42:00,46.0,-99.9,-100.00,South,189,3.0,-999.0,-999,0.00,,,-99.99,,2013-11-01 13:42:00,
2013-11-01 08:52:00,46.0,-99.9,-100.00,South,189,3.0,-999.0,-999,0.00,,,-99.99,,2013-11-01 13:52:00,
2013-11-01 09:11:00,47.0,-99.9,-100.00,SW,221,4.0,-999.0,-999,0.00,,,-99.99,,2013-11-01 14:11:00,
2013-11-01 09:22:00,47.0,-99.9,-100.00,SW,221,4.0,-999.0,-999,0.00,,,-99.99,,2013-11-01 14:22:00,
2013-11-01 09:42:00,48.0,-99.9,-100.00,SSW,206,1.0,-999.0,-999,0.00,,,0.64,,2013-11-01 14:42:00,
2013-11-01 09:52:00,48.0,-99.9,-100.00,SSW,206,1.0,-999.0,-999,0.00,,,0.64,,2013-11-01 14:52:00,
2013-11-01 10:11:00,50.0,-99.9,-100.00,NNW,336,2.0,-999.0,-999,0.00,,,0.64,,2013-11-01 15:11:00,
2013-11-01 10:22:00,50.0,-99.9,-100.00,NNW,336,2.0,-999.0,-999,0.00,,,0.64,,2013-11-01 15:22:00,
2013-11-01 10:44:00,50.0,-99.9,-100.00,NW,305,3.0,-999.0,-999,0.00,,,0.62,,2013-11-01 15:44:00,
2013-11-01 10:54:00,50.0,-99.9,-100.00,NW,305,3.0,-999.0,-999,0.00,,,0.62,,2013-11-01 15:54:00,
2013-11-01 11:13:00,51.0,-99.9,-100.00,NW,310,3.0,-999.0,-999,0.00,,,0.60,,2013-11-01 16:13:00,
2013-11-01 11:23:00,51.0,-99.9,-100.00,NW,310,3.0,-999.0,-999,0.00,,,0.60,,2013-11-01 16:23:00,
2013-11-01 11:43:00,53.0,-99.9,-100.00,NW,326,2.0,-999.0,-999,0.00,,,0.57,,2013-11-01 16:43:00,
2013-11-01 11:53:00,53.0,-99.9,-100.00,NW,326,2.0,-999.0,-999,0.00,,,0.57,,2013-11-01 16:53:00,
2013-11-01 12:12:00,53.0,-99.9,-100.00,NW,324,7.0,-999.0,-999,0.00,,,0.43,,2013-11-01 17:12:00,
2013-11-01 12:22:00,53.0,-99.9,-100.00,NW,324,7.0,-999.0,-999,0.00,,,0.43,,2013-11-01 17:22:00,
2013-11-01 12:43:00,53.0,-99.9,-100.00,NNW,330,7.0,-999.0,-999,0.00,,,0.14,,2013-11-01 17:43:00,
2013-11-01 12:52:00,53.0,-99.9,-100.00,NNW,330,7.0,-999.0,-999,0.00,,,0.14,,2013-11-01 17:52:00,
2013-11-01 13:12:00,53.0,-99.9,-100.00,NW,310,10.0,-999.0,-999,0.00,,,0.04,,2013-11-01 18:12:00,
2013-11-01 13:22:00,53.0,-99.9,-100.00,NW,310,10.0,-999.0,-999,0.00,,,0.04,,2013-11-01 18:22:00,
2013-11-01 13:42:00,53.0,-99.9,-100.00,NW,318,10.0,-999.0,-999,0.00,,,0.04,,2013-11-01 18:42:00,
2013-11-01 13:52:00,53.0,-99.9,-100.00,NW,318,10.0,-999.0,-999,0.00,,,0.04,,2013-11-01 18:52:00,
2013-11-01 14:12:00,54.0,-99.9,-100.00,NW,315,9.0,-999.0,-999,0.00,,,0.03,,2013-11-01 19:12:00,
2013-11-01 14:22:00,54.0,-99.9,-100.00,NW,315,9.0,-999.0,-999,0.00,,,0.03,,2013-11-01 19:22:00,
2013-11-01 14:42:00,55.0,-99.9,-100.00,NW,319,8.0,-999.0,-999,0.00,,,0.03,,2013-11-01 19:42:00,
2013-11-01 14:52:00,55.0,-99.9,-100.00,NW,319,8.0,-999.0,-999,0.00,,,0.03,,2013-11-01 19:52:00,
2013-11-01 15:12:00,55.0,-99.9,-100.00,NW,325,8.0,-999.0,-999,0.00,,,0.03,,2013-11-01 20:12:00,
2013-11-01 15:22:00,55.0,-99.9,-100.00,NW,325,8.0,-999.0,-999,0.00,,,0.03,,2013-11-01 20:22:00,
2013-11-01 15:42:00,56.0,-99.9,-100.00,NW,319,9.0,-999.0,-999,0.00,,,0.01,,2013-11-01 20:42:00,
2013-11-01 15:52:00,56.0,-99.9,-100.00,NW,319,9.0,-999.0,-999,0.00,,,0.01,,2013-11-01 20:52:00,
2013-11-01 16:12:00,57.0,-99.9,-100.00,NW,318,5.0,-999.0,-999,0.00,,,0.00,,2013-11-01 21:12:00,
2013-11-01 16:22:00,57.0,-99.9,-100.00,NW,318,5.0,-999.0,-999,0.00,,,0.00,,2013-11-01 21:22:00,
2013-11-01 16:44:00,57.0,-99.9,-100.00,NW,318,4.0,-999.0,-999,0.00,,,0.00,,2013-11-01 21:44:00,
2013-11-01 16:55:00,57.0,-99.9,-100.00,NW,318,4.0,-999.0,-999,0.00,,,0.00,,2013-11-01 21:55:00,
2013-11-01 17:14:00,58.0,-99.9,-100.00,NW,320,2.0,-999.0,-999,0.00,,,0.00,,2013-11-01 22:14:00,
2013-11-01 17:24:00,58.0,-99.9,-100.00,NW,320,2.0,-999.0,-999,0.00,,,0.00,,2013-11-01 22:24:00,
2013-11-01 17:42:00,56.0,-99.9,-100.00,NW,314,5.0,-999.0,-999,0.00,,,0.00,,2013-11-01 22:42:00,
2013-11-01 17:53:00,56.0,-99.9,-100.00,NW,314,5.0,-999.0,-999,0.00,,,0.00,,2013-11-01 22:53:00,
2013-11-01 18:13:00,56.0,-99.9,-100.00,NW,311,4.0,-999.0,-999,0.00,,,-99.99,,2013-11-01 23:13:00,
2013-11-01 18:22:00,56.0,-99.9,-100.00,NW,311,4.0,-999.0,-999,0.00,,,-99.99,,2013-11-01 23:22:00,
2013-11-01 18:42:00,52.0,-99.9,-100.00,WSW,240,1.0,-999.0,-999,0.00,,,0.00,,2013-11-01 23:42:00,
2013-11-01 18:53:00,52.0,-99.9,-100.00,WSW,240,1.0,-999.0,-999,0.00,,,0.00,,2013-11-01 23:53:00,
2013-11-01 19:11:00,50.0,-99.9,-100.00,WNW,291,1.0,-999.0,-999,0.00,,,0.00,,2013-11-02 00:11:00,
2013-11-01 19:22:00,50.0,-99.9,-100.00,WNW,291,1.0,-999.0,-999,0.00,,,0.00,,2013-11-02 00:22:00,
2013-11-01 19:42:00,51.0,-99.9,-100.00,NW,319,1.0,-999.0,-999,0.00,,,0.00,,2013-11-02 00:42:00,
2013-11-01 19:52:00,51.0,-99.9,-100.00,NW,319,1.0,-999.0,-999,0.00,,,0.00,,2013-11-02 00:52:00,
2013-11-01 20:12:00,50.0,-99.9,-100.00,WSW,242,1.0,-999.0,-999,0.00,,,0.00,,2013-11-02 01:12:00,
2013-11-01 20:22:00,50.0,-99.9,-100.00,WSW,242,1.0,-999.0,-999,0.00,,,0.00,,2013-11-02 01:22:00,
2013-11-01 20:42:00,51.0,-99.9,-100.00,ENE,67,1.0,-999.0,-999,0.00,,,0.00,,2013-11-02 01:42:00,
2013-11-01 20:52:00,51.0,-99.9,-100.00,ENE,67,1.0,-999.0,-999,0.00,,,0.00,,2013-11-02 01:52:00,
2013-11-01 21:12:00,51.0,-99.9,-100.00,SSE,168,2.0,-999.0,-999,0.00,,,0.00,,2013-11-02 02:12:00,
2013-11-01 21:22:00,51.0,-99.9,-100.00,SSE,168,2.0,-999.0,-999,0.00,,,0.00,,2013-11-02 02:22:00,
2013-11-01 21:42:00,51.0,-99.9,-100.00,South,174,2.0,-999.0,-999,0.00,,,0.00,,2013-11-02 02:42:00,
2013-11-01 22:12:00,51.0,-99.9,-100.00,South,178,3.0,-999.0,-999,0.00,,,0.00,,2013-11-02 03:12:00,
2013-11-01 22:22:00,51.0,-99.9,-100.00,South,178,3.0,-999.0,-999,0.00,,,0.00,,2013-11-02 03:22:00,
2013-11-01 22:44:00,51.0,-99.9,-100.00,SSW,196,5.0,-999.0,-999,0.00,,,0.00,,2013-11-02 03:44:00,
2013-11-01 22:54:00,51.0,-99.9,-100.00,SSW,196,5.0,-999.0,-999,0.00,,,0.00,,2013-11-02 03:54:00,
2013-11-01 23:13:00,50.0,-99.9,-100.00,SW,216,3.0,-999.0,-999,0.00,,,0.00,,2013-11-02 04:13:00,
2013-11-01 23:24:00,50.0,-99.9,-100.00,SW,216,3.0,-999.0,-999,0.00,,,0.00,,2013-11-02 04:24:00,
2013-11-01 23:44:00,50.0,-99.9,-100.00,South,181,3.0,-999.0,-999,0.00,,,0.00,,2013-11-02 04:44:00,
2013-11-01 23:54:00,50.0,-99.9,-100.00,South,181,3.0,-999.0,-999,0.00,,,0.00,,2013-11-02 04:54:00,